| time (UTC) | temp C | wind direction | speed KPH | gust KPH | rain 1hr cm | rain 24hr cm | rain mn cm | humidity % | barometer mb |
| 20260507101544 | 9 | 8 | 4.8 | 12.9 | 0.00 | 0.28 | 0.08 | 90 | 1014.6 |
| 20260507101032 | 9 | 356 | 4.8 | 12.9 | 0.00 | 0.28 | 0.08 | 91 | 1014.7 |
| 20260507100530 | 9 | 349 | 3.2 | 11.3 | 0.00 | 0.28 | 0.08 | 91 | 1014.6 |
| 20260507100058 | 9 | 354 | 4.8 | 16.1 | 0.00 | 0.28 | 0.08 | 90 | 1014.6 |
| 20260507095531 | 9 | 28 | 6.4 | 16.1 | 0.00 | 0.30 | 0.08 | 91 | 1014.5 |
| 20260507095031 | 9 | 316 | 1.6 | 6.4 | 0.00 | 0.30 | 0.08 | 91 | 1014.3 |
| 20260507094542 | 9 | 332 | 0.0 | 4.8 | 0.00 | 0.28 | 0.08 | 91 | 1014.3 |
| 20260507094031 | 9 | 332 | 0.0 | 6.4 | 0.00 | 0.28 | 0.08 | 91 | 1014.2 |
| 20260507093534 | 9 | 333 | 0.0 | 8.0 | 0.00 | 0.28 | 0.08 | 91 | 1014.2 |
| 20260507093038 | 9 | 0 | 1.6 | 8.0 | 0.00 | 0.28 | 0.08 | 91 | 1014.2 |
| 20260507092533 | 9 | 0 | 3.2 | 8.0 | 0.00 | 0.28 | 0.08 | 91 | 1014.2 |
| 20260507092030 | 9 | 6 | 1.6 | 8.0 | 0.00 | 0.28 | 0.08 | 91 | 1014.2 |
| 20260507091548 | 8 | 0 | 1.6 | 9.7 | 0.00 | 0.28 | 0.08 | 91 | 1014.1 |
| 20260507091034 | 8 | 212 | 4.8 | 9.7 | 0.00 | 0.28 | 0.08 | 91 | 1014.0 |
| 20260507090528 | 9 | 355 | 3.2 | 11.3 | 0.00 | 0.28 | 0.08 | 91 | 1014.0 |
| 20260507090053 | 8 | 11 | 1.6 | 11.3 | 0.00 | 0.28 | 0.08 | 91 | 1014.0 |
| 20260507085531 | 8 | 33 | 4.8 | 11.3 | 0.00 | 0.36 | 0.08 | 91 | 1014.0 |
| 20260507085027 | 8 | 351 | 3.2 | 11.3 | 0.00 | 0.36 | 0.08 | 91 | 1013.9 |
| 20260507084546 | 8 | 336 | 4.8 | 11.3 | 0.00 | 0.36 | 0.08 | 91 | 1013.9 |
| 20260507084031 | 8 | 332 | 3.2 | 11.3 | 0.00 | 0.36 | 0.08 | 91 | 1013.8 |
| 20260507083531 | 8 | 347 | 3.2 | 11.3 | 0.00 | 0.36 | 0.08 | 91 | 1013.8 |
| 20260507083045 | 8 | 316 | 3.2 | 11.3 | 0.00 | 0.36 | 0.08 | 91 | 1013.7 |
| 20260507082531 | 8 | 349 | 1.6 | 8.0 | 0.00 | 0.36 | 0.08 | 91 | 1013.7 |
| 20260507082031 | 8 | 335 | 1.6 | 8.0 | 0.00 | 0.36 | 0.08 | 91 | 1013.7 |
| 20260507081540 | 8 | 327 | 1.6 | 11.3 | 0.00 | 0.36 | 0.08 | 91 | 1013.7 |
| 20260507081030 | 8 | 291 | 1.6 | 17.7 | 0.00 | 0.36 | 0.08 | 91 | 1013.7 |
| 20260507080531 | 8 | 6 | 1.6 | 17.7 | 0.00 | 0.36 | 0.08 | 91 | 1013.6 |
| 20260507080046 | 8 | 322 | 4.8 | 16.1 | 0.00 | 0.36 | 0.08 | 91 | 1013.6 |
| 20260507075530 | 8 | 341 | 4.8 | 14.5 | 0.00 | 0.46 | 0.08 | 91 | 1013.5 |
| 20260507075028 | 8 | 0 | 3.2 | 14.5 | 0.00 | 0.46 | 0.08 | 91 | 1013.4 |
| 20260507074540 | 8 | 0 | 1.6 | 9.7 | 0.00 | 0.46 | 0.08 | 91 | 1013.4 |
| 20260507074031 | 8 | 262 | 3.2 | 11.3 | 0.00 | 0.46 | 0.08 | 91 | 1013.3 |
| 20260507073529 | 8 | 0 | 1.6 | 11.3 | 0.00 | 0.46 | 0.08 | 91 | 1013.2 |
| 20260507073043 | 8 | 283 | 1.6 | 11.3 | 0.00 | 0.46 | 0.08 | 91 | 1013.2 |
| 20260507072530 | 8 | 0 | 6.4 | 12.9 | 0.00 | 0.46 | 0.08 | 91 | 1013.2 |
| 20260507072030 | 8 | 327 | 4.8 | 12.9 | 0.00 | 0.46 | 0.08 | 91 | 1013.2 |
| 20260507071542 | 8 | 6 | 4.8 | 14.5 | 0.00 | 0.46 | 0.08 | 91 | 1013.2 |
| 20260507071031 | 8 | 353 | 4.8 | 14.5 | 0.00 | 0.46 | 0.08 | 91 | 1013.1 |
| 20260507070529 | 8 | 359 | 1.6 | 9.7 | 0.00 | 0.46 | 0.08 | 91 | 1013.0 |
| 20260507070059 | 8 | 354 | 1.6 | 14.5 | 0.00 | 0.46 | 0.08 | 91 | 1012.9 |
| 20260507065530 | 8 | 356 | 3.2 | 14.5 | 0.00 | 0.53 | 0.08 | 91 | 1013.0 |
| 20260507065030 | 8 | 4 | 4.8 | 12.9 | 0.00 | 0.53 | 0.08 | 91 | 1012.8 |
| 20260507064549 | 8 | 0 | 3.2 | 8.0 | 0.00 | 0.53 | 0.08 | 91 | 1012.9 |
| 20260507064030 | 8 | 0 | 1.6 | 9.7 | 0.00 | 0.53 | 0.08 | 91 | 1012.9 |
| 20260507063531 | 8 | 10 | 3.2 | 11.3 | 0.00 | 0.53 | 0.08 | 91 | 1012.8 |
| 20260507063038 | 8 | 0 | 1.6 | 14.5 | 0.00 | 0.53 | 0.08 | 91 | 1012.8 |
| 20260507062530 | 8 | 360 | 4.8 | 14.5 | 0.00 | 0.53 | 0.08 | 91 | 1012.6 |
| 20260507062030 | 8 | 0 | 1.6 | 9.7 | 0.00 | 0.53 | 0.08 | 91 | 1012.6 |
| 20260507061540 | 8 | 0 | 1.6 | 14.5 | 0.00 | 0.53 | 0.08 | 91 | 1012.6 |
| 20260507061030 | 8 | 352 | 6.4 | 14.5 | 0.00 | 0.53 | 0.08 | 91 | 1012.5 |
| 20260507060528 | 8 | 346 | 0.0 | 8.0 | 0.00 | 0.53 | 0.08 | 91 | 1012.4 |
| 20260507060041 | 8 | 345 | 1.6 | 11.3 | 0.00 | 0.53 | 0.08 | 91 | 1012.4 |
| 20260507055531 | 8 | 0 | 3.2 | 11.3 | 0.00 | 0.64 | 0.08 | 91 | 1012.3 |
| 20260507055030 | 8 | 7 | 3.2 | 11.3 | 0.00 | 0.64 | 0.08 | 91 | 1012.2 |
| 20260507054559 | 8 | 326 | 1.6 | 11.3 | 0.00 | 0.64 | 0.08 | 91 | 1012.1 |
| 20260507054034 | 8 | 0 | 3.2 | 9.7 | 0.00 | 0.64 | 0.08 | 91 | 1012.0 |
| 20260507053531 | 8 | 0 | 0.0 | 12.9 | 0.00 | 0.64 | 0.08 | 91 | 1012.0 |
| 20260507053038 | 8 | 0 | 3.2 | 14.5 | 0.00 | 0.64 | 0.08 | 91 | 1011.9 |
| 20260507052532 | 8 | 14 | 4.8 | 14.5 | 0.00 | 0.64 | 0.08 | 91 | 1011.9 |
| 20260507052031 | 8 | 351 | 3.2 | 17.7 | 0.00 | 0.64 | 0.08 | 91 | 1011.8 |
| 20260507051551 | 8 | 2 | 4.8 | 17.7 | 0.00 | 0.64 | 0.08 | 91 | 1011.8 |
| 20260507051033 | 8 | 2 | 1.6 | 12.9 | 0.00 | 0.64 | 0.08 | 91 | 1011.8 |
| 20260507050534 | 8 | 359 | 4.8 | 14.5 | 0.00 | 0.64 | 0.08 | 91 | 1011.8 |
| 20260507050051 | 8 | 278 | 6.4 | 14.5 | 0.00 | 0.64 | 0.08 | 91 | 1011.6 |
| 20260507045531 | 8 | 1 | 1.6 | 12.9 | 0.00 | 0.79 | 0.08 | 91 | 1011.6 |
| 20260507045031 | 8 | 353 | 1.6 | 16.1 | 0.00 | 0.79 | 0.08 | 91 | 1011.5 |
| 20260507044554 | 8 | 294 | 3.2 | 16.1 | 0.03 | 0.79 | 0.08 | 91 | 1011.5 |
| 20260507044030 | 8 | 352 | 3.2 | 14.5 | 0.03 | 0.79 | 0.08 | 91 | 1011.5 |
| 20260507043531 | 8 | 278 | 0.0 | 4.8 | 0.03 | 0.79 | 0.08 | 91 | 1011.4 |
| 20260507043040 | 8 | 325 | 0.0 | 9.7 | 0.03 | 0.79 | 0.08 | 91 | 1011.3 |
| 20260507042531 | 8 | 232 | 1.6 | 11.3 | 0.03 | 0.79 | 0.08 | 91 | 1011.2 |
| 20260507042031 | 8 | 10 | 4.8 | 11.3 | 0.00 | 0.76 | 0.05 | 91 | 1011.3 |
| 20260507041548 | 8 | 338 | 3.2 | 11.3 | 0.00 | 0.76 | 0.05 | 91 | 1011.1 |
| 20260507041030 | 8 | 18 | 3.2 | 14.5 | 0.00 | 0.76 | 0.05 | 91 | 1011.1 |
| 20260507040531 | 8 | 297 | 4.8 | 14.5 | 0.00 | 0.76 | 0.05 | 91 | 1011.0 |
| 20260507040042 | 8 | 355 | 0.0 | 9.7 | 0.00 | 0.76 | 0.05 | 91 | 1011.0 |
| 20260507035527 | 8 | 302 | 0.0 | 8.0 | 0.00 | 0.84 | 0.05 | 91 | 1011.0 |
| 20260507035030 | 8 | 274 | 1.6 | 9.7 | 0.00 | 0.84 | 0.05 | 91 | 1011.0 |
| 20260507034542 | 8 | 0 | 1.6 | 9.7 | 0.00 | 0.84 | 0.03 | 91 | 1010.9 |
| 20260507034030 | 8 | 353 | 1.6 | 6.4 | 0.00 | 0.84 | 0.03 | 91 | 1010.9 |
| 20260507033532 | 8 | 295 | 1.6 | 6.4 | 0.00 | 0.84 | 0.03 | 91 | 1010.9 |
| 20260507033042 | 8 | 285 | 1.6 | 6.4 | 0.00 | 0.84 | 0.03 | 91 | 1010.9 |
| 20260507032530 | 8 | 0 | 0.0 | 6.4 | 0.00 | 0.84 | 0.03 | 91 | 1010.9 |
| 20260507032031 | 8 | 271 | 1.6 | 6.4 | 0.00 | 0.84 | 0.03 | 91 | 1010.9 |
| 20260507031541 | 8 | 296 | 0.0 | 12.9 | 0.00 | 0.84 | 0.03 | 91 | 1010.8 |
| 20260507031031 | 8 | 0 | 1.6 | 12.9 | 0.00 | 0.84 | 0.03 | 91 | 1010.8 |
| 20260507030531 | 8 | 298 | 1.6 | 12.9 | 0.00 | 0.84 | 0.03 | 91 | 1010.8 |
| 20260507030048 | 8 | 0 | 0.0 | 9.7 | 0.00 | 0.84 | 0.03 | 91 | 1010.7 |
| 20260507025528 | 8 | 360 | 1.6 | 9.7 | 0.00 | 0.94 | 0.03 | 91 | 1010.7 |
| 20260507025028 | 8 | 272 | 0.0 | 11.3 | 0.00 | 0.94 | 0.03 | 91 | 1010.7 |
| 20260507024538 | 8 | 333 | 1.6 | 11.3 | 0.00 | 0.94 | 0.03 | 91 | 1010.5 |
| 20260507024034 | 8 | 349 | 1.6 | 11.3 | 0.00 | 0.94 | 0.03 | 91 | 1010.5 |
| 20260507023531 | 8 | 326 | 0.0 | 6.4 | 0.00 | 0.94 | 0.03 | 91 | 1010.5 |
| 20260507023044 | 8 | 347 | 0.0 | 9.7 | 0.00 | 0.94 | 0.03 | 91 | 1010.5 |
| 20260507022530 | 8 | 1 | 1.6 | 14.5 | 0.00 | 0.94 | 0.03 | 91 | 1010.6 |
| 20260507022027 | 8 | 345 | 3.2 | 14.5 | 0.00 | 0.94 | 0.03 | 91 | 1010.5 |
| 20260507021543 | 8 | 310 | 1.6 | 9.7 | 0.00 | 0.94 | 0.03 | 91 | 1010.5 |
| 20260507021027 | 8 | 0 | 1.6 | 9.7 | 0.00 | 0.94 | 0.03 | 91 | 1010.4 |
| 20260507020531 | 8 | 300 | 3.2 | 11.3 | 0.00 | 0.94 | 0.03 | 91 | 1010.2 |
| 20260507020055 | 8 | 0 | 1.6 | 11.3 | 0.00 | 0.94 | 0.03 | 91 | 1010.3 |
| 20260507015530 | 8 | 0 | 3.2 | 11.3 | 0.00 | 1.14 | 0.03 | 91 | 1010.2 |
| 20260507015030 | 8 | 0 | 0.0 | 9.7 | 0.00 | 1.14 | 0.03 | 91 | 1010.2 |
| 20260507014547 | 8 | 342 | 0.0 | 8.0 | 0.00 | 1.14 | 0.03 | 91 | 1010.2 |
| 20260507014032 | 8 | 0 | 1.6 | 8.0 | 0.00 | 1.14 | 0.03 | 91 | 1010.1 |
| 20260507013531 | 8 | 358 | 0.0 | 9.7 | 0.00 | 1.14 | 0.03 | 91 | 1010.2 |
| 20260507013046 | 8 | 0 | 0.0 | 9.7 | 0.00 | 1.14 | 0.03 | 91 | 1010.2 |
| 20260507012530 | 8 | 287 | 0.0 | 6.4 | 0.00 | 1.14 | 0.03 | 91 | 1010.1 |
| 20260507012032 | 8 | 0 | 0.0 | 6.4 | 0.00 | 1.14 | 0.03 | 91 | 1010.1 |
| 20260507011554 | 8 | 0 | 1.6 | 4.8 | 0.00 | 1.14 | 0.03 | 91 | 1010.0 |
| 20260507011031 | 8 | 0 | 0.0 | 8.0 | 0.00 | 1.14 | 0.03 | 91 | 1010.0 |
| 20260507010531 | 8 | 0 | 1.6 | 8.0 | 0.00 | 1.12 | 0.00 | 91 | 1010.0 |
| 20260507010045 | 8 | 0 | 0.0 | 8.0 | 0.00 | 1.12 | 0.00 | 91 | 1009.9 |
| 20260507005533 | 8 | 0 | 1.6 | 8.0 | 0.00 | 1.37 | 0.00 | 91 | 1009.9 |
| 20260507005031 | 8 | 303 | 1.6 | 8.0 | 0.00 | 1.37 | 0.00 | 91 | 1009.9 |
| 20260507004542 | 8 | 0 | 0.0 | 8.0 | 0.00 | 1.37 | 0.00 | 91 | 1010.0 |
| 20260507004031 | 8 | 0 | 1.6 | 8.0 | 0.00 | 1.37 | 0.00 | 91 | 1009.9 |
| 20260507003531 | 8 | 0 | 0.0 | 4.8 | 0.00 | 1.37 | 0.00 | 91 | 1009.9 |
| 20260507003040 | 8 | 0 | 0.0 | 6.4 | 0.00 | 1.37 | 0.00 | 91 | 1009.9 |
| 20260507002530 | 8 | 0 | 1.6 | 6.4 | 0.00 | 1.37 | 0.00 | 91 | 1009.9 |
| 20260507002030 | 8 | 276 | 0.0 | 6.4 | 0.00 | 1.37 | 0.00 | 91 | 1009.8 |
| 20260507001558 | 8 | 276 | 0.0 | 9.7 | 0.00 | 1.37 | 0.00 | 91 | 1009.8 |
| 20260507001032 | 8 | 0 | 1.6 | 9.7 | 0.00 | 1.37 | 0.00 | 91 | 1009.7 |
| 20260507000533 | 8 | 281 | 1.6 | 9.7 | 0.00 | 1.37 | 0.00 | 91 | 1009.7 |
| 20260507000043 | 8 | 0 | 1.6 | 12.9 | 0.00 | 1.37 | 0.00 | 91 | 1009.7 |
| 20260506235531 | 8 | 283 | 1.6 | 12.9 | 0.00 | 1.65 | 0.00 | 91 | 1009.7 |
| 20260506235032 | 8 | 299 | 0.0 | 9.7 | 0.00 | 1.65 | 0.00 | 91 | 1009.7 |
| 20260506234601 | 8 | 0 | 1.6 | 11.3 | 0.00 | 1.65 | 0.00 | 91 | 1009.7 |
| 20260506234031 | 8 | 354 | 3.2 | 11.3 | 0.00 | 1.65 | 0.00 | 91 | 1009.8 |
| 20260506233531 | 8 | 294 | 1.6 | 6.4 | 0.00 | 1.65 | 0.00 | 91 | 1009.7 |
| 20260506233048 | 8 | 295 | 1.6 | 11.3 | 0.00 | 1.63 | 0.00 | 91 | 1009.8 |
| 20260506232530 | 8 | 0 | 1.6 | 11.3 | 0.00 | 1.63 | 0.00 | 91 | 1009.7 |
| 20260506232030 | 8 | 279 | 1.6 | 9.7 | 0.00 | 1.63 | 0.00 | 91 | 1009.5 |
| 20260506231538 | 8 | 328 | 1.6 | 9.7 | 0.00 | 1.63 | 0.00 | 91 | 1009.5 |
| 20260506231032 | 8 | 303 | 0.0 | 9.7 | 0.00 | 1.63 | 0.00 | 91 | 1009.6 |
| 20260506230531 | 8 | 0 | 0.0 | 9.7 | 0.00 | 1.63 | 0.00 | 91 | 1009.5 |
| 20260506230042 | 8 | 295 | 1.6 | 9.7 | 0.00 | 1.63 | 0.00 | 91 | 1009.5 |
| 20260506225530 | 8 | 0 | 0.0 | 9.7 | 0.00 | 1.85 | 0.00 | 91 | 1009.6 |
| 20260506225030 | 8 | 0 | 1.6 | 9.7 | 0.00 | 1.85 | 0.00 | 90 | 1009.5 |
| 20260506224549 | 8 | 285 | 1.6 | 9.7 | 0.00 | 1.85 | 0.00 | 90 | 1009.4 |
| 20260506224030 | 8 | 287 | 1.6 | 6.4 | 0.00 | 1.85 | 0.00 | 90 | 1009.4 |
| 20260506223531 | 8 | 0 | 1.6 | 6.4 | 0.00 | 1.85 | 0.00 | 90 | 1009.4 |
| 20260506223041 | 8 | 0 | 0.0 | 8.0 | 0.00 | 1.85 | 0.00 | 90 | 1009.4 |
| 20260506222531 | 8 | 0 | 0.0 | 8.0 | 0.00 | 1.85 | 0.00 | 90 | 1009.4 |
| 20260506222033 | 8 | 335 | 0.0 | 8.0 | 0.00 | 1.85 | 0.00 | 90 | 1009.4 |
| 20260506221555 | 8 | 0 | 1.6 | 8.0 | 0.00 | 1.85 | 0.00 | 90 | 1009.4 |
| 20260506221030 | 8 | 343 | 0.0 | 9.7 | 0.00 | 1.85 | 0.00 | 90 | 1009.3 |
| 20260506220532 | 8 | 333 | 3.2 | 9.7 | 0.00 | 1.85 | 0.00 | 90 | 1009.4 |
| 20260506220046 | 8 | 0 | 1.6 | 6.4 | 0.00 | 1.85 | 0.00 | 90 | 1009.3 |
| 20260506215530 | 8 | 0 | 0.0 | 6.4 | 0.00 | 2.24 | 1.85 | 90 | 1009.3 |
| 20260506215030 | 8 | 0 | 0.0 | 6.4 | 0.00 | 2.24 | 1.85 | 90 | 1009.3 |
| 20260506214541 | 8 | 0 | 0.0 | 6.4 | 0.00 | 2.24 | 1.85 | 90 | 1009.3 |
| 20260506214031 | 8 | 291 | 1.6 | 6.4 | 0.00 | 2.24 | 1.85 | 90 | 1009.3 |
| 20260506213532 | 8 | 0 | 0.0 | 6.4 | 0.00 | 2.24 | 1.85 | 90 | 1009.3 |
| 20260506213043 | 8 | 0 | 0.0 | 6.4 | 0.00 | 2.24 | 1.85 | 90 | 1009.3 |
| 20260506212530 | 8 | 0 | 0.0 | 9.7 | 0.00 | 2.24 | 1.85 | 90 | 1009.3 |
| 20260506212032 | 8 | 281 | 0.0 | 9.7 | 0.00 | 2.24 | 1.85 | 90 | 1009.2 |
| 20260506211552 | 8 | 0 | 0.0 | 9.7 | 0.00 | 2.24 | 1.85 | 90 | 1009.2 |
| 20260506211030 | 8 | 0 | 0.0 | 9.7 | 0.00 | 2.24 | 1.85 | 90 | 1009.1 |
| 20260506210530 | 8 | 295 | 0.0 | 9.7 | 0.00 | 2.24 | 1.85 | 90 | 1009.2 |
| 20260506210047 | 8 | 0 | 0.0 | 9.7 | 0.00 | 2.24 | 1.85 | 90 | 1009.1 |
| 20260506205530 | 8 | 0 | 0.0 | 9.7 | 0.00 | 2.36 | 1.85 | 90 | 1009.1 |
| 20260506205030 | 8 | 0 | 0.0 | 8.0 | 0.00 | 2.36 | 1.85 | 90 | 1009.1 |
| 20260506204543 | 8 | 320 | 1.6 | 8.0 | 0.00 | 2.36 | 1.85 | 90 | 1009.1 |
| 20260506204031 | 8 | 0 | 1.6 | 9.7 | 0.00 | 2.36 | 1.85 | 90 | 1009.1 |
| 20260506203530 | 8 | 0 | 0.0 | 9.7 | 0.00 | 2.36 | 1.85 | 90 | 1009.1 |
| 20260506203049 | 8 | 314 | 3.2 | 9.7 | 0.00 | 2.36 | 1.85 | 90 | 1009.0 |
| 20260506202531 | 8 | 13 | 1.6 | 8.0 | 0.00 | 2.36 | 1.85 | 90 | 1008.9 |
| 20260506202033 | 8 | 38 | 1.6 | 6.4 | 0.00 | 2.36 | 1.85 | 90 | 1009.0 |
| 20260506201541 | 8 | 310 | 0.0 | 11.3 | 0.00 | 2.36 | 1.85 | 90 | 1008.9 |
| 20260506201032 | 8 | 335 | 0.0 | 12.9 | 0.00 | 2.36 | 1.85 | 90 | 1008.9 |
| 20260506200530 | 8 | 324 | 4.8 | 12.9 | 0.00 | 2.34 | 1.83 | 90 | 1008.9 |
| 20260506200042 | 8 | 345 | 0.0 | 9.7 | 0.00 | 2.34 | 1.83 | 90 | 1008.8 |
| 20260506195530 | 8 | 19 | 1.6 | 9.7 | 0.00 | 2.69 | 1.83 | 90 | 1008.8 |
| 20260506195030 | 8 | 329 | 1.6 | 8.0 | 0.00 | 2.69 | 1.83 | 90 | 1008.8 |
| 20260506194544 | 8 | 328 | 1.6 | 9.7 | 0.00 | 2.69 | 1.83 | 90 | 1008.8 |
| 20260506194031 | 8 | 0 | 1.6 | 9.7 | 0.00 | 2.69 | 1.83 | 90 | 1008.7 |
| 20260506193530 | 8 | 0 | 1.6 | 11.3 | 0.00 | 2.69 | 1.83 | 90 | 1008.7 |
| 20260506193050 | 8 | 6 | 1.6 | 11.3 | 0.00 | 2.69 | 1.83 | 90 | 1008.7 |
| 20260506192532 | 8 | 293 | 1.6 | 11.3 | 0.00 | 2.69 | 1.83 | 90 | 1008.6 |
| 20260506192028 | 8 | 353 | 1.6 | 9.7 | 0.00 | 2.69 | 1.83 | 90 | 1008.5 |
| 20260506191539 | 8 | 270 | 1.6 | 9.7 | 0.03 | 2.69 | 1.83 | 90 | 1008.4 |
| 20260506191031 | 8 | 0 | 0.0 | 6.4 | 0.03 | 2.69 | 1.83 | 90 | 1008.5 |
| 20260506190531 | 8 | 332 | 1.6 | 6.4 | 0.03 | 2.69 | 1.83 | 90 | 1008.4 |
| 20260506190038 | 8 | 0 | 0.0 | 8.0 | 0.00 | 2.67 | 1.80 | 90 | 1008.3 |
| 20260506185531 | 8 | 0 | 0.0 | 8.0 | 0.00 | 2.72 | 1.80 | 90 | 1008.3 |
| 20260506185031 | 8 | 345 | 0.0 | 8.0 | 0.00 | 2.72 | 1.80 | 90 | 1008.3 |
| 20260506184543 | 8 | 0 | 1.6 | 8.0 | 0.00 | 2.72 | 1.80 | 90 | 1008.1 |
| 20260506184032 | 8 | 317 | 0.0 | 8.0 | 0.00 | 2.72 | 1.80 | 90 | 1008.1 |
| 20260506183529 | 8 | 0 | 0.0 | 8.0 | 0.00 | 2.72 | 1.80 | 90 | 1008.1 |
| 20260506183040 | 8 | 0 | 0.0 | 8.0 | 0.00 | 2.72 | 1.80 | 90 | 1008.1 |
| 20260506182530 | 8 | 336 | 0.0 | 6.4 | 0.00 | 2.72 | 1.80 | 90 | 1008.1 |
| 20260506182030 | 8 | 0 | 0.0 | 8.0 | 0.00 | 2.72 | 1.80 | 90 | 1008.0 |
| 20260506181555 | 8 | 0 | 1.6 | 11.3 | 0.00 | 2.69 | 1.78 | 90 | 1007.9 |
| 20260506181031 | 8 | 343 | 3.2 | 11.3 | 0.00 | 2.69 | 1.78 | 89 | 1007.9 |
| 20260506180532 | 8 | 344 | 1.6 | 9.7 | 0.00 | 2.69 | 1.78 | 89 | 1007.8 |
| 20260506180038 | 8 | 0 | 3.2 | 11.3 | 0.00 | 2.69 | 1.78 | 90 | 1007.8 |
| 20260506175530 | 9 | 16 | 3.2 | 11.3 | 0.00 | 2.69 | 1.78 | 90 | 1007.7 |
| 20260506175030 | 9 | 0 | 3.2 | 9.7 | 0.00 | 2.69 | 1.78 | 90 | 1007.7 |
| 20260506174540 | 9 | 330 | 1.6 | 9.7 | 0.00 | 2.69 | 1.78 | 90 | 1007.7 |
| 20260506174035 | 9 | 0 | 0.0 | 8.0 | 0.00 | 2.69 | 1.78 | 90 | 1007.6 |
| 20260506173534 | 9 | 0 | 1.6 | 8.0 | 0.00 | 2.69 | 1.78 | 90 | 1007.7 |
| 20260506173111 | 9 | 0 | 0.0 | 11.3 | 0.00 | 2.69 | 1.78 | 90 | 1007.5 |
| 20260506172532 | 9 | 350 | 4.8 | 11.3 | 0.00 | 2.69 | 1.78 | 90 | 1007.5 |
| 20260506172030 | 9 | 287 | 3.2 | 12.9 | 0.00 | 2.69 | 1.78 | 90 | 1007.5 |
| 20260506171545 | 9 | 311 | 4.8 | 16.1 | 0.00 | 2.69 | 1.78 | 90 | 1007.4 |
| 20260506171032 | 9 | 283 | 6.4 | 16.1 | 0.00 | 2.69 | 1.78 | 90 | 1007.3 |
| 20260506170531 | 9 | 4 | 4.8 | 14.5 | 0.00 | 2.69 | 1.78 | 90 | 1007.3 |
| 20260506170056 | 9 | 0 | 3.2 | 14.5 | 0.00 | 2.69 | 1.78 | 90 | 1007.3 |
| 20260506165530 | 9 | 325 | 1.6 | 12.9 | 0.00 | 2.69 | 1.78 | 90 | 1007.3 |
| 20260506165031 | 9 | 331 | 1.6 | 16.1 | 0.00 | 2.69 | 1.78 | 90 | 1007.3 |
| 20260506164540 | 9 | 344 | 4.8 | 16.1 | 0.00 | 2.69 | 1.78 | 90 | 1007.3 |
| 20260506164034 | 9 | 0 | 6.4 | 12.9 | 0.00 | 2.69 | 1.78 | 90 | 1007.3 |
| 20260506163527 | 9 | 41 | 3.2 | 14.5 | 0.00 | 2.69 | 1.78 | 90 | 1007.2 |
| 20260506163051 | 9 | 352 | 6.4 | 14.5 | 0.00 | 2.69 | 1.78 | 90 | 1007.2 |
| 20260506162532 | 9 | 16 | 0.0 | 8.0 | 0.00 | 2.69 | 1.78 | 90 | 1007.2 |
| 20260506162030 | 9 | 0 | 3.2 | 9.7 | 0.00 | 2.69 | 1.78 | 90 | 1007.2 |
| 20260506161544 | 9 | 343 | 1.6 | 9.7 | 0.03 | 2.69 | 1.78 | 90 | 1007.2 |
| 20260506161032 | 9 | 0 | 1.6 | 8.0 | 0.03 | 2.69 | 1.78 | 90 | 1007.3 |
| 20260506160532 | 9 | 0 | 0.0 | 8.0 | 0.03 | 2.69 | 1.78 | 90 | 1007.2 |
| 20260506160045 | 9 | 55 | 3.2 | 14.5 | 0.00 | 2.67 | 1.78 | 90 | 1007.2 |
| 20260506155531 | 9 | 0 | 4.8 | 14.5 | 0.00 | 2.67 | 1.78 | 90 | 1007.2 |
| 20260506155030 | 9 | 335 | 1.6 | 11.3 | 0.00 | 2.67 | 1.78 | 90 | 1007.1 |
| 20260506154604 | 9 | 0 | 1.6 | 14.5 | 0.00 | 2.67 | 1.78 | 90 | 1007.2 |
| 20260506154031 | 9 | 31 | 4.8 | 14.5 | 0.00 | 2.67 | 1.78 | 90 | 1007.2 |
| 20260506153531 | 9 | 349 | 0.0 | 12.9 | 0.00 | 2.67 | 1.78 | 90 | 1007.2 |
| 20260506153037 | 9 | 34 | 1.6 | 14.5 | 0.03 | 2.67 | 1.78 | 90 | 1007.1 |
| 20260506152530 | 9 | 0 | 4.8 | 14.5 | 0.03 | 2.67 | 1.78 | 90 | 1007.1 |
| 20260506152030 | 9 | 0 | 3.2 | 11.3 | 0.03 | 2.67 | 1.78 | 90 | 1007.1 |
| 20260506151544 | 9 | 357 | 1.6 | 9.7 | 0.00 | 2.64 | 1.75 | 90 | 1007.2 |
| 20260506151031 | 9 | 0 | 1.6 | 8.0 | 0.00 | 2.64 | 1.75 | 90 | 1007.2 |
| 20260506150528 | 9 | 0 | 1.6 | 8.0 | 0.00 | 2.64 | 1.75 | 90 | 1007.1 |
| 20260506150041 | 9 | 16 | 1.6 | 9.7 | 0.00 | 2.64 | 1.75 | 90 | 1007.0 |
| 20260506145533 | 9 | 0 | 1.6 | 14.5 | 0.03 | 2.72 | 1.75 | 90 | 1006.9 |
| 20260506145030 | 9 | 349 | 4.8 | 14.5 | 0.03 | 2.72 | 1.75 | 90 | 1007.0 |
| 20260506144550 | 9 | 0 | 3.2 | 12.9 | 0.03 | 2.72 | 1.75 | 90 | 1006.9 |
| 20260506144031 | 9 | 347 | 3.2 | 12.9 | 0.05 | 2.72 | 1.75 | 90 | 1006.9 |
| 20260506143532 | 9 | 0 | 1.6 | 12.9 | 0.05 | 2.72 | 1.75 | 90 | 1007.0 |
| 20260506143041 | 9 | 0 | 3.2 | 12.9 | 0.03 | 2.72 | 1.73 | 90 | 1006.9 |
| 20260506142532 | 9 | 0 | 0.0 | 9.7 | 0.05 | 2.72 | 1.73 | 90 | 1006.9 |
| 20260506142030 | 9 | 0 | 0.0 | 9.7 | 0.05 | 2.72 | 1.73 | 90 | 1006.9 |
| 20260506141537 | 9 | 308 | 1.6 | 8.0 | 0.05 | 2.72 | 1.73 | 90 | 1006.9 |
| 20260506141032 | 9 | 256 | 0.0 | 8.0 | 0.05 | 2.72 | 1.73 | 90 | 1006.8 |
| 20260506140530 | 9 | 0 | 1.6 | 8.0 | 0.05 | 2.72 | 1.73 | 90 | 1006.8 |
| 20260506140040 | 9 | 31 | 1.6 | 8.0 | 0.05 | 2.72 | 1.73 | 90 | 1006.8 |
| 20260506135531 | 9 | 289 | 0.0 | 6.4 | 0.03 | 2.69 | 1.70 | 90 | 1006.8 |
| 20260506135031 | 9 | 289 | 0.0 | 8.0 | 0.03 | 2.69 | 1.70 | 90 | 1006.8 |
| 20260506134542 | 9 | 297 | 1.6 | 8.0 | 0.03 | 2.69 | 1.70 | 90 | 1006.8 |
| 20260506134031 | 9 | 303 | 1.6 | 9.7 | 0.00 | 2.67 | 1.68 | 90 | 1006.8 |
| 20260506133531 | 9 | 0 | 1.6 | 9.7 | 0.00 | 2.67 | 1.68 | 90 | 1006.8 |
| 20260506133056 | 9 | 21 | 1.6 | 6.4 | 0.00 | 2.67 | 1.68 | 90 | 1006.8 |
| 20260506132530 | 9 | 0 | 1.6 | 6.4 | 0.00 | 2.64 | 1.68 | 90 | 1006.9 |
| 20260506132035 | 8 | 279 | 1.6 | 6.4 | 0.00 | 2.64 | 1.68 | 90 | 1006.8 |
| 20260506131539 | 9 | 269 | 1.6 | 6.4 | 0.00 | 2.64 | 1.68 | 89 | 1006.8 |
| 20260506131032 | 9 | 0 | 0.0 | 8.0 | 0.00 | 2.64 | 1.68 | 89 | 1006.8 |
| 20260506130533 | 9 | 0 | 0.0 | 8.0 | 0.00 | 2.64 | 1.68 | 90 | 1006.8 |
| 20260506130040 | 9 | 0 | 1.6 | 8.0 | 0.00 | 2.64 | 1.68 | 90 | 1006.8 |
| 20260506125530 | 9 | 276 | 0.0 | 11.3 | 0.00 | 2.64 | 1.68 | 89 | 1006.7 |
| 20260506125030 | 9 | 307 | 1.6 | 11.3 | 0.00 | 2.64 | 1.68 | 90 | 1006.6 |
| 20260506124539 | 9 | 299 | 3.2 | 12.9 | 0.00 | 2.64 | 1.68 | 89 | 1006.7 |
| 20260506124031 | 9 | 0 | 1.6 | 12.9 | 0.00 | 2.64 | 1.68 | 90 | 1006.5 |
| 20260506123532 | 9 | 318 | 1.6 | 9.7 | 0.00 | 2.64 | 1.68 | 90 | 1006.6 |
| 20260506123044 | 9 | 12 | 1.6 | 11.3 | 0.00 | 2.64 | 1.68 | 90 | 1006.6 |
| 20260506122531 | 9 | 0 | 1.6 | 14.5 | 0.00 | 2.64 | 1.68 | 90 | 1006.5 |
| 20260506122031 | 9 | 330 | 1.6 | 14.5 | 0.00 | 2.64 | 1.68 | 89 | 1006.4 |
| 20260506121544 | 10 | 287 | 3.2 | 14.5 | 0.00 | 2.64 | 1.68 | 90 | 1006.4 |
| 20260506121031 | 10 | 21 | 1.6 | 9.7 | 0.00 | 2.64 | 1.68 | 90 | 1006.4 |
| 20260506120528 | 10 | 276 | 1.6 | 9.7 | 0.00 | 2.64 | 1.68 | 90 | 1006.3 |
| 20260506120043 | 10 | 318 | 1.6 | 11.3 | 0.00 | 2.64 | 1.68 | 90 | 1006.1 |
| 20260506115531 | 10 | 299 | 3.2 | 11.3 | 0.00 | 2.64 | 1.68 | 90 | 1006.1 |
| 20260506115030 | 10 | 359 | 4.8 | 11.3 | 0.00 | 2.64 | 1.68 | 90 | 1006.1 |
| 20260506114546 | 10 | 0 | 3.2 | 11.3 | 0.00 | 2.64 | 1.68 | 90 | 1006.0 |
| 20260506114032 | 10 | 30 | 3.2 | 11.3 | 0.00 | 2.64 | 1.68 | 91 | 1006.0 |
| 20260506113530 | 10 | 358 | 3.2 | 9.7 | 0.00 | 2.64 | 1.68 | 91 | 1006.1 |
| 20260506113046 | 10 | 25 | 3.2 | 11.3 | 0.00 | 2.64 | 1.68 | 90 | 1006.1 |
| 20260506112531 | 10 | 0 | 3.2 | 11.3 | 0.00 | 2.64 | 1.68 | 91 | 1006.1 |
| 20260506112030 | 10 | 331 | 3.2 | 11.3 | 0.00 | 2.64 | 1.68 | 91 | 1006.1 |
| 20260506111546 | 10 | 0 | 0.0 | 12.9 | 0.00 | 2.64 | 1.68 | 91 | 1006.1 |
| 20260506111031 | 10 | 19 | 3.2 | 17.7 | 0.00 | 2.64 | 1.68 | 91 | 1006.1 |
| 20260506110531 | 10 | 51 | 8.0 | 17.7 | 0.00 | 2.64 | 1.68 | 91 | 1006.1 |
| 20260506110046 | 9 | 354 | 4.8 | 14.5 | 0.00 | 2.64 | 1.68 | 90 | 1006.0 |
| 20260506105531 | 9 | 352 | 1.6 | 14.5 | 0.03 | 2.64 | 1.68 | 91 | 1006.1 |
| 20260506105029 | 9 | 345 | 3.2 | 14.5 | 0.03 | 2.64 | 1.68 | 91 | 1006.0 |
| 20260506104607 | 9 | 356 | 3.2 | 14.5 | 0.03 | 2.64 | 1.68 | 91 | 1006.0 |
| 20260506104033 | 9 | 344 | 6.4 | 14.5 | 0.03 | 2.64 | 1.68 | 91 | 1005.9 |
| 20260506103533 | 9 | 310 | 4.8 | 14.5 | 0.03 | 2.64 | 1.68 | 91 | 1006.0 |
| 20260506103042 | 9 | 304 | 4.8 | 11.3 | 0.03 | 2.64 | 1.68 | 91 | 1006.0 |
| 20260506102533 | 9 | 327 | 1.6 | 11.3 | 0.03 | 2.64 | 1.68 | 90 | 1005.9 |
| 20260506102031 | 10 | 0 | 4.8 | 14.5 | 0.00 | 2.62 | 1.65 | 91 | 1005.9 |